map of KRSV home
Great Circle Mapper logo
KRSV - Airport
Location
City:  Robinson, Illinois, United States
Name:Crawford County Airport
ICAO:KRSV
FAA:RSV

Details
Type:Airport (Airfield)
Use:Public/Civil
Latitude:3900'58"N (39.016028)
Longitude:8738'59"W (-87.649777)
Datum:WGS 1984
Elevation:461 ft (141 m)
Runways:2
Longest:5108 × 100 ft (1557 × 30.5 m), paved

Time
Time Zone:UTC-6 (DST-5)
Local Time:

Weather
METAR:KRSV 230955Z AUTO 00000KT 1 1/4SM BR VV007 07/07 A3031 RMK AO2 T00650065

Related Locations
Nearby:
Farthest:MGV: 11132 mi / 17915 km
Margaret River, WA, AU

Find:

   beyond  
but within

Other Information
Maps:
NOTAMs:
Links:
Sources:

  
flag of United States
flag of Illinois
  

Sectional Chart

Flight Planning
at skyvector.com

Satellite Image

Google Maps Satellite View

 

Copyright © 2004-2014 Karl L. Swartz. All rights reserved.
The Great Circle Mapper name and logo are trademarks of the Great Circle Mapper.
All other trademarks mentioned herein belong to their respective owners.
Please see credits for attibutions and further copyright information.

  Follow gcmap on Facebook Follow gcmap on Twitter

hCard Microformat

Geo Microformat